Weather History for Aurora, OR

Change the Weather History Date:

Saturday, September 7, 2013

  Actual Average Record
Temperature  
Mean Temperature 68 °F -  
Max Temperature 81 °F - 95 °F (2012)
Min Temperature 55 °F - 45 °F (1999)
Degree Days  
Heating Degree Days 0    
Month to date heating degree days 3  
Since 1 July heating degree days 13  
Cooling Degree Days 3    
Month to date cooling degree days 20  
Year to date cooling degree days 382  
Growing Degree Days 18 (Base 50)    
Moisture  
Dew Point 57 °F    
Average Humidity 71    
Maximum Humidity 100    
Minimum Humidity 42    
Precipitation  
Precipitation 0.00 in - 0.33 in (2003)
Month to date precipitation 2.19  
Year to date precipitation 15.77  
Sea Level Pressure  
Sea Level Pressure 30.05 in    
Wind  
Wind Speed 4 mph (NNE)    
Max Wind Speed 10 mph    
Max Gust Speed 14 mph    
Visibility 7 miles    
Events Fog    
T = Trace of Precipitation, MM = Missing Value Source: NWS Daily Summary

Daily Weather History Graph

Daily Weather History Graph

Search for Another Location

Airport:

Trip Planner

Search our weather history database for the weather conditions in past years. The results will help you decide how hot, cold, wet, or windy it might be!

Date:

Astronomy

Sep. 07, 2013 Rise Set
Actual Time 6:40 AM PDT 7:36 PM PDT
Civil Twilight 6:10 AM PDT 8:06 PM PDT
Nautical Twilight 5:34 AM PDT 8:42 PM PDT
Astronomical Twilight 4:56 AM PDT 9:19 PM PDT
Moon 9:09 AM PDT (9/7) 8:27 PM PDT (9/7)
Length of Visible Light 13h 56m
Length of Day
12h 56m
Waxing Crescent, 6% of the Moon is Illuminated
Sep 7
Waxing Crescent
Sep 12
First Quarter
Sep 19
Full
Sep 26
Last Quarter
Oct 4
New

Hourly Weather History & Observations

Time (PDT) Temp. Heat Index Dew Point Humidity Pressure Visibility Wind Dir Wind Speed Gust Speed Precip Events Conditions
12:53 AM 57.9 °F - 55.9 °F 93% 30.11 in 10.0 mi Calm Calm - N/A   Clear
1:53 AM 57.0 °F - 55.0 °F 93% 30.10 in 10.0 mi Calm Calm - N/A   Clear
2:53 AM 55.0 °F - 54.0 °F 96% 30.10 in 9.0 mi Calm Calm - 0.01 in   Partly Cloudy
3:14 AM 55.4 °F - 55.4 °F 100% 30.09 in 10.0 mi Calm Calm - N/A   Scattered Clouds
3:26 AM 55.4 °F - 53.6 °F 94% 30.09 in 10.0 mi Calm Calm - N/A   Mostly Cloudy
3:36 AM 55.4 °F - 55.4 °F 100% 30.09 in 1.8 mi Calm Calm - N/A   Overcast
3:45 AM 55.4 °F - 55.4 °F 100% 30.09 in 0.5 mi Calm Calm - N/A Fog Fog
3:53 AM 55.9 °F - 55.9 °F 100% 30.09 in 0.5 mi NNE 3.5 mph - N/A Fog Fog
4:04 AM 57.2 °F - 55.4 °F 94% 30.08 in 0.2 mi Calm Calm - N/A Fog Fog
4:13 AM 55.4 °F - 55.4 °F 100% 30.08 in 0.2 mi NE 3.5 mph - N/A Fog Fog
4:53 AM 55.9 °F - 55.9 °F 100% 30.08 in 0.2 mi Calm Calm - N/A Fog Fog
5:02 AM 55.4 °F - 55.4 °F 100% 30.08 in 0.2 mi NE 3.5 mph - N/A Fog Fog
5:22 AM 55.4 °F - 55.4 °F 100% 30.07 in 0.5 mi NNE 3.5 mph - N/A Fog Fog
5:53 AM 57.9 °F - 57.9 °F 100% 30.07 in 0.2 mi North 3.5 mph - N/A Fog Fog
6:03 AM 57.2 °F - 57.2 °F 100% 30.07 in 0.5 mi North 3.5 mph - N/A Fog Fog
6:38 AM 57.2 °F - 57.2 °F 100% 30.07 in 1.5 mi NNE 5.8 mph - N/A   Overcast
6:46 AM 57.2 °F - 57.2 °F 100% 30.07 in 2.0 mi NNE 6.9 mph - N/A   Overcast
6:53 AM 57.0 °F - 57.0 °F 100% 30.07 in 1.0 mi NE 5.8 mph - N/A   Overcast
7:02 AM 57.2 °F - 57.2 °F 100% 30.07 in 3.0 mi NNE 4.6 mph - N/A   Overcast
7:53 AM 59.0 °F - 57.9 °F 96% 30.07 in 9.0 mi ENE 3.5 mph - N/A   Overcast
8:03 AM 57.2 °F - 57.2 °F 100% 30.07 in 10.0 mi NE 6.9 mph - N/A   Overcast
8:53 AM 60.1 °F - 57.9 °F 93% 30.07 in 10.0 mi North 6.9 mph - N/A   Overcast
9:10 AM 60.8 °F - 57.2 °F 88% 30.07 in 10.0 mi North 9.2 mph - N/A   Overcast
9:37 AM 60.8 °F - 57.2 °F 88% 30.06 in 10.0 mi NNW 4.6 mph - N/A   Overcast
9:44 AM 62.6 °F - 57.2 °F 82% 30.07 in 10.0 mi North 5.8 mph - N/A   Overcast
9:53 AM 63.0 °F - 57.9 °F 84% 30.06 in 10.0 mi North 5.8 mph - N/A   Overcast
10:40 AM 66.2 °F - 57.2 °F 73% 30.06 in 10.0 mi Variable 3.5 mph - N/A   Mostly Cloudy
10:53 AM 68.0 °F - 57.9 °F 70% 30.05 in 10.0 mi Variable 4.6 mph - N/A   Mostly Cloudy
11:53 AM 69.1 °F - 57.0 °F 65% 30.04 in 10.0 mi Variable 3.5 mph - N/A   Mostly Cloudy
12:20 PM 71.6 °F - 57.2 °F 60% 30.03 in 10.0 mi North 5.8 mph - N/A   Scattered Clouds
12:53 PM 73.0 °F - 57.9 °F 59% 30.02 in 10.0 mi North 5.8 mph - N/A   Clear
1:53 PM 75.0 °F - 57.0 °F 53% 30.01 in 10.0 mi NNE 3.5 mph - N/A   Clear
2:53 PM 77.0 °F - 57.0 °F 50% 29.99 in 10.0 mi North 3.5 mph - N/A   Clear
3:53 PM 79.0 °F - 55.9 °F 45% 29.98 in 10.0 mi North 3.5 mph - N/A   Clear
4:53 PM 80.1 °F 80.4 °F 57.0 °F 45% 29.96 in 10.0 mi ENE 5.8 mph - N/A   Clear
5:53 PM 81.0 °F 80.8 °F 55.9 °F 42% 29.96 in 10.0 mi NE 6.9 mph - N/A   Clear
6:53 PM 78.1 °F - 57.0 °F 48% 29.96 in 10.0 mi NE 6.9 mph - N/A   Clear
7:53 PM 73.0 °F - 57.9 °F 59% 29.97 in 10.0 mi NNE 6.9 mph - N/A   Clear
8:53 PM 69.1 °F - 59.0 °F 70% 29.99 in 10.0 mi Calm Calm - N/A   Clear
9:53 PM 69.1 °F - 59.0 °F 70% 29.99 in 10.0 mi North 6.9 mph - N/A   Clear
10:53 PM 68.0 °F - 59.0 °F 73% 30.00 in 10.0 mi North 9.2 mph - N/A   Clear
11:53 PM 66.9 °F - 59.0 °F 76% 30.00 in 10.0 mi Calm Calm - N/A   Clear